SCP
0 0 0 0 -0 0 0 0 0 0 0 0 0 0 0 0 0 0 0 0 0 0 0 0 0 0 0 0 0 0 0 0 0 0 0 0 0 0 0 0 0 0 0 0 0
0 0 0 0 0 0 0 0 0 0 0 0 0 0 0 0 0 0 0 0 0 0 0 0 0 0 0 0 0 0 0 0 0 0 0 0 0 0 0 0 0 0 0 0 0
0 0 0 0 0 0 0 0 0 0 0 0 0 0 0 0 0 0 0 0 0 0 0 0 0 0 0 0 0 0 0 0 0 0 0 0 0 -0 0 0 0 0 0 0 0
0 0 0 0 0 0 0 0 0 0 0 0 0 0 0 0 0 0 0 0 0 0 0 0 0 0 0 0 0 0 0 0 0 0 0 0 0 0 0 0 0 -0 -0 0 0
0 0 0 0 0 0 0 0 0 0 0 0 0 0 0 0 0 0 0 0 0 0 0 0 0 0 0 0 0 0 0 0 0 0 0 0 0 0 0 0 0 0 -0 -0 0
0 0 0 0 0 0 0 0 0 0 0 0 0 0 0 0 0 0 0 0 0 0 0 0 0 0 0 0 0 0 0 0 0 0 0 0 0 0 0 0 0 0 -0 -0 -0
0 0 0 0 0 0 0 0 0 0 0 0 0 0 0 0 0 0 0 0 0 0 0 0 0 0 0 0 0 0 0 0 0 0 0 0 0 0 0 0 0 0 0 -0 -0
0 0 0 0 -0 0 0 0 0 0 0 0 0 0 0 0 0 0 0 0 0 0 0 0 0 0 0 0 0 0 0 0 0 0 0 0 0 0 0 0 0 0 0 -0 -0
0 0 0 0 0 0 0 0 0 0 0 0 0 0 0 0 0 0 0 0 0 0 0 0 0 0 0 0 0 0 0 0 0 0 0 0 0 0 0 0 0 0 -0 0 0
0 0 0 0 0 0 0 0 0 0 0 0 0 0 0 0 0 0 0 0 0 0 0 0 0 0 0 0 0 0 0 0 0 0 0 0 0 0 0 0 0 0 -0 0 0
0 0 0 0 0 0 0 0 0 0 0 0 0 0 0 0 0 0 0 0 0 0 0 0 0 0 0 0 0 0 0 0 0 0 0 0 -0 -0 0 0 0 0 0 -0 0
0 0 0 0 0 0 0 0 0 0 0 0 0 0 0 0 0 0 0 0 0 0 0 0 0 0 0 0 0 0 0 0 -0 0 0 0 0 -0 0 0 0 0 0 0 -0
0 0 0 0 0 0 0 0 0 0 0 0 0 0 0 0 0 0 0 0 0 0 0 0 0 0 0 0 0 0 0 0 0 0 0 0 -0 -0 0 0 0 0 0 0 0
0 0 0 0 0 0 0 0 0 0 0 0 0 0 0 0 0 0 0 0 0 0 -0 0 0 0 0 0 0 0 0 0 0 0 0 0 0 -0 0 0 0 0 0 0 0
0 0 0 0 0 0 0 0 0 0 0 0 0 0 0 0 0 0 0 0 0 0 0 0 0 0 0 0 0 0 0 0 0 0 -0 0 0 0 0 0 0 0 0 0 0
0 0 0 0 0 0 0 0 0 0 0 0 0 0 0 0 0 0 0 0 0 0 0 0 0 0 0 0 0 0 0 0 0 0 0 0 0 0 0 -0 -0 0 0 0 0
0 0 0 0 0 0 0 0 0 0 0 0 0 0 0 0 0 0 0 0 -0 0 0 0 0 0 0 0 -0 0 0 0 0 0 0 0 0 0 -0 0 -0 -0 0 0 0
0 0 0 0 0 0 0 0 0 0 0 0 0 0 0 0 0 0 0 0 0 0 0 0 0 0 0 0 0 0 0 0 0 0 -0 -0 0 0 -0 -0 -0 -0 0 0 0
0 0 0 0 0 0 0 0 0 0 0 0 0 0 0 0 0 0 0 0 0 0 0 0 0 0 0 0 0 0 0 0 0 0 0 0 0 0 -0 -0 -0 -0 0 0 0
0 0 0 0 0 0 0 0 0 0 0 0 0 0 0 0 0 0 0 0 0 0 0 0 0 0 0 0 0 0 0 0 0 0 0 0 0 0 -0 -0 -0 -0 0 0 0
0 0 0 0 0 0 0 0 0 0 0 0 0 0 0 0 0 0 0 0 0 0 0 0 0 0 0 0 0 0 0 0 0 0 0 0 0 -0 -0 -0 -0 0 -0 -0 0
0 0 0 0 0 0 0 0 0 0 0 0 0 0 0 0 0 0 0 0 0 0 0 0 0 0 0 0 0 0 0 0 0 0 0 0 0 0 -0 -0 -0 -0 -0 -0 0
0 0 0 0 0 0 0 0 0 0 0 0 0 0 0 0 0 0 0 0 0 0 0 0 0 0 0 0 0 0 0 0 0 0 0 0 0 -0 -0 -0 -0 0 0 0 0
0 0 0 0 0 0 0 0 0 0 0 0 0 0 0 0 0 0 0 0 0 0 0 0 0 0 0 0 0 0 0 0 0 0 0 0 0 -0 0 -0 -0 0 0 0 0
0 0 0 0 0 0 0 0 0 0 0 0 0 0 0 0 0 0 0 0 0 0 0 0 0 0 0 0 0 0 0 0 0 0 0 0 0 0 0 0 0 0 0 0 0
0 0 0 0 0 0 0 0 0 0 0 0 0 0 0 0 0 0 0 0 0 0 0 0 0 0 0 0 0 0 0 0 0 0 0 0 0 0 0 0 0 0 0 0 0
0 0 0 0 0 0 0 0 0 0 0 0 0 0 0 0 0 0 0 0 0 0 0 0 0 0 0 0 0 0 0 0 0 0 0 0 0 0 0 0 0 0 0 0 0
Wind_Speed_500mb
17 19 23 27 32 34 37 40 43 45 45 45 47 47 42 35 27 2 11 12 17 24 28 27 19 19 15 6 8 6 2 7 12 10 9 22 13 26 27 27 19 27 44 34 41
18 23 28 31 33 38 41 45 48 47 47 47 49 44 35 35 16 5 13 15 21 29 26 23 23 21 11 6 6 6 7 15 13 5 7 17 15 24 21 35 28 47 17 28 37
20 24 29 33 35 40 45 49 48 50 50 48 42 37 36 26 9 5 17 21 24 26 21 21 18 17 7 7 6 6 10 8 6 24 30 9 15 21 12 33 15 40 62 52 48
23 26 31 35 38 42 48 47 53 53 52 43 39 32 34 7 3 9 20 26 26 25 21 21 17 12 6 8 7 8 19 21 15 31 19 9 21 20 39 50 66 57 43 61 61
25 29 33 37 40 44 49 48 56 59 45 37 29 39 14 7 7 15 30 30 28 34 31 27 22 8 5 8 13 18 17 28 30 27 40 43 33 32 47 75 73 75 66 43 48
27 31 34 38 44 48 46 53 59 50 39 27 33 23 6 4 10 20 37 32 38 34 28 27 19 24 21 14 12 11 17 25 34 42 43 29 44 19 53 61 59 69 59 58 57
28 32 37 42 46 51 45 57 62 43 32 23 32 20 4 5 17 31 46 38 25 23 29 29 26 19 9 10 31 24 24 32 32 44 24 32 23 21 54 55 61 65 64 55 53
30 35 39 45 50 53 48 59 53 41 14 32 16 20 6 17 23 55 38 38 26 34 30 21 20 30 25 21 10 10 10 14 4 5 14 15 32 19 34 40 45 52 53 52 50
31 36 41 48 55 55 51 58 36 21 23 14 13 9 4 19 53 44 33 36 43 21 25 22 15 11 7 5 8 9 16 23 29 14 15 19 30 14 19 23 40 61 59 54 47
32 37 43 51 56 55 58 56 28 6 14 4 12 8 9 33 60 30 30 41 32 28 18 6 4 3 3 3 10 19 30 30 35 11 18 27 35 24 52 41 46 60 62 58 52
32 37 43 51 55 49 65 37 23 4 11 8 9 6 20 41 46 36 41 45 10 6 6 7 4 11 20 16 27 29 34 46 45 34 32 37 42 39 41 45 39 54 56 53 51
31 38 43 50 52 42 56 33 20 14 14 7 12 18 28 33 22 40 49 23 12 10 8 7 11 14 11 15 27 27 36 44 42 24 22 34 43 38 34 31 47 52 56 55 45
31 37 42 48 41 47 48 43 26 9 6 9 12 14 22 38 8 41 52 25 5 9 15 8 16 19 20 23 21 27 25 37 38 34 20 35 31 29 34 44 58 61 66 55 52
31 36 42 47 23 45 37 42 20 6 8 11 12 10 42 32 5 20 53 14 9 9 13 12 7 23 25 11 15 21 8 20 25 22 11 10 14 24 12 22 20 39 52 56 58
29 35 42 43 32 40 42 35 10 3 10 20 11 14 49 14 24 11 39 14 7 15 6 12 22 25 8 20 28 18 28 33 37 29 25 17 10 11 12 18 30 28 34 31 46
28 34 38 39 32 43 40 25 4 12 9 14 11 18 18 11 15 23 22 27 5 9 7 24 12 3 6 33 26 29 23 40 17 11 8 8 16 6 10 25 34 32 48 45 35
27 33 37 33 34 42 37 11 10 14 12 21 11 15 15 12 12 14 11 16 12 15 31 16 10 8 7 21 16 34 29 8 9 3 9 10 10 10 33 44 38 43 53 52 40
27 32 35 25 37 36 28 10 18 7 11 8 13 21 9 17 8 21 13 13 13 7 10 11 16 14 15 4 19 28 16 8 11 7 14 15 6 7 45 61 64 62 70 46 31
26 31 27 23 36 28 9 12 13 12 5 14 20 8 11 10 5 17 12 8 8 13 13 10 11 5 16 10 18 18 15 32 11 20 8 5 15 3 61 69 72 76 6 19 18
26 28 8 27 28 18 10 4 4 5 5 9 2 4 6 12 17 19 12 7 15 18 20 6 13 7 12 13 9 19 23 9 6 8 9 11 12 20 57 66 68 36 25 35 20
25 13 9 29 19 8 7 11 8 6 2 5 6 8 7 8 5 8 9 10 12 14 20 6 4 15 9 12 27 20 17 8 10 6 6 9 5 23 40 52 53 36 52 60 54
12 6 15 21 7 7 4 10 4 3 2 2 6 6 7 6 6 6 7 5 26 26 16 6 6 9 10 7 16 19 27 9 5 9 7 6 5 38 42 46 52 50 56 67 65
11 7 10 15 6 5 7 4 5 1 2 1 5 6 2 3 6 6 7 10 20 14 10 14 7 11 18 3 15 15 44 36 4 7 25 8 11 32 45 46 76 59 58 59 70
6 5 5 12 14 9 2 4 8 2 6 6 6 4 6 9 4 9 8 8 41 10 28 5 5 4 4 12 7 35 44 42 25 6 11 14 23 46 50 50 57 67 56 60 75
1 0 0 3 6 6 3 5 4 8 7 5 3 4 6 4 8 5 7 13 11 22 15 7 3 7 11 6 1 26 31 40 36 24 12 16 22 34 36 37 46 50 50 72 76
3 6 5 8 4 2 4 4 2 5 7 5 7 6 9 9 12 8 7 5 5 18 13 9 6 9 8 7 8 19 43 37 34 28 13 20 19 33 47 50 57 60 62 73 74
12 10 2 2 4 5 6 7 6 3 10 14 10 6 4 14 18 28 30 30 23 12 14 10 9 10 11 13 9 9 38 21 21 29 12 18 16 31 26 38 56 61 70 68 69
Wind_Direction_500mb
22 14 11 8 0 352 348 345 345 338 336 332 332 333 335 335 338 102 17 3 343 330 329 329 324 328 316 278 217 187 97 217 237 221 265 342 4 324 316 299 305 298 304 298 324
16 10 4 360 354 348 347 344 340 335 334 332 330 334 338 336 345 56 4 348 337 329 332 335 333 338 311 269 232 161 184 225 211 202 278 302 300 312 311 308 299 298 274 292 314
9 4 357 352 352 348 346 339 337 336 333 328 331 335 338 336 104 10 353 348 339 330 323 322 319 325 280 282 234 226 222 248 272 283 293 253 285 300 284 282 258 303 307 304 309
356 354 352 350 351 349 342 337 337 335 331 329 331 338 336 359 118 352 353 341 332 334 315 307 312 307 242 237 241 279 247 258 288 295 297 286 297 277 273 270 280 283 272 292 290
347 349 349 351 348 346 342 336 335 332 329 330 331 336 354 92 56 1 346 330 317 318 312 298 304 272 238 253 285 247 260 264 270 289 287 285 261 261 271 277 280 278 282 271 270
342 346 348 349 346 344 341 336 336 333 331 330 338 348 5 101 353 344 343 328 316 310 301 286 274 288 270 232 206 242 273 278 288 281 273 267 268 244 257 270 269 275 264 266 267
341 344 348 347 344 342 344 338 334 334 335 345 340 349 143 93 348 336 336 333 328 312 303 302 287 257 252 274 277 276 282 284 266 263 257 249 264 235 259 271 267 267 274 280 272
340 344 347 343 342 343 345 340 332 335 343 345 350 340 119 360 350 340 332 330 329 313 303 305 282 261 241 261 290 281 255 283 136 181 246 179 272 270 261 256 265 277 283 285 279
340 343 344 342 342 343 344 344 335 343 340 354 1 356 76 350 340 349 344 333 324 333 317 297 290 238 231 257 298 195 267 264 294 239 252 193 266 232 252 272 286 285 281 280 281
338 342 344 342 341 341 345 347 338 358 1 10 1 359 1 331 335 352 354 339 319 325 319 308 259 250 296 132 276 287 287 284 283 282 270 271 256 263 276 271 257 268 274 275 274
337 341 345 342 342 342 346 356 354 312 14 14 354 278 300 334 338 0 358 338 324 302 321 307 295 253 274 244 257 273 281 284 280 283 279 267 262 258 261 257 249 253 260 262 267
334 342 344 343 341 345 346 26 18 321 316 326 332 331 331 326 319 355 355 354 339 318 313 330 256 270 287 283 285 283 282 280 282 284 276 271 268 267 256 250 242 243 254 256 256
336 340 344 344 341 344 357 10 4 327 287 314 329 328 344 328 309 343 354 335 293 318 319 265 274 311 333 314 291 282 271 282 279 307 262 271 277 261 254 245 246 244 246 247 249
334 340 343 348 345 346 353 353 354 41 58 314 350 360 349 338 308 352 354 339 341 311 317 271 286 321 316 307 350 301 312 291 288 306 296 76 298 300 260 245 237 248 249 239 240
330 338 342 349 339 345 343 344 354 352 31 318 334 350 354 57 302 330 354 352 329 311 49 274 310 331 313 327 332 267 292 284 278 270 289 271 236 279 15 10 357 352 323 277 253
327 334 341 339 339 341 344 344 359 39 305 341 355 349 5 334 334 325 356 5 329 324 238 292 298 5 277 317 301 275 294 294 269 243 250 259 198 324 24 345 329 324 322 318 290
324 332 337 333 337 339 342 349 31 93 359 315 331 351 346 313 310 18 353 19 31 358 348 330 334 314 322 329 319 333 335 314 349 8 228 351 190 57 5 353 333 318 308 300 299
323 329 331 325 337 339 340 48 56 239 248 339 331 320 358 344 341 341 8 360 46 6 320 6 329 19 319 262 309 321 332 319 310 313 313 274 304 123 3 346 329 313 295 272 277
319 328 327 327 335 340 353 47 199 205 267 329 322 17 321 346 313 358 12 323 43 360 2 327 281 269 295 311 31 317 337 304 254 259 238 245 358 299 348 340 341 329 171 207 240
322 330 321 333 340 343 66 222 191 234 2 53 325 90 307 322 353 4 351 325 350 3 344 287 295 316 311 10 23 346 348 348 339 316 325 42 61 346 344 337 328 357 48 54 58
328 338 337 340 343 14 107 222 261 278 107 123 248 299 274 303 314 316 298 307 24 316 322 295 185 297 11 9 345 6 358 316 290 272 336 334 88 360 347 332 325 32 56 65 68
335 4 334 348 8 50 113 188 261 322 95 288 229 226 208 313 316 301 304 276 348 329 334 333 273 289 256 270 14 29 2 337 264 28 320 306 75 8 351 338 349 21 44 63 67
318 293 340 3 87 325 316 283 267 80 256 248 276 177 95 265 348 243 288 272 349 334 336 352 331 329 349 334 10 21 11 6 358 354 14 21 329 348 350 355 4 11 33 57 65
322 5 26 65 83 121 106 319 321 284 259 238 267 48 26 1 290 291 306 314 333 340 358 1 295 309 294 263 325 10 17 21 24 26 319 33 337 3 354 357 355 4 26 51 60
29 198 138 316 11 93 104 153 320 5 234 223 294 168 153 332 314 286 286 303 327 4 359 46 325 335 280 235 289 23 20 20 28 8 37 334 26 7 0 349 351 7 30 49 53
214 179 127 99 101 121 285 238 271 303 222 273 173 191 191 190 188 270 349 346 327 332 343 4 317 6 295 309 278 5 22 23 23 12 8 355 37 2 1 9 14 22 32 42 46
205 210 222 83 92 79 219 179 214 158 239 245 256 140 187 234 240 268 268 265 277 307 327 344 327 7 310 334 345 356 10 15 32 30 341 21 330 335 6 17 23 22 33 38 44
Wind_Speed_850mb
17 19 23 27 32 34 37 40 43 45 45 45 47 47 42 35 27 2 11 12 17 24 28 27 19 19 15 6 8 6 2 7 12 10 9 22 13 26 27 27 19 27 44 34 41
18 23 28 31 33 38 41 45 48 47 47 47 49 44 35 35 16 5 13 15 21 29 26 23 23 21 11 6 6 6 7 15 13 5 7 17 15 24 21 35 28 47 17 28 37
20 24 29 33 35 40 45 49 48 50 50 48 42 37 36 26 9 5 17 21 24 26 21 21 18 17 7 7 6 6 10 8 6 24 30 9 15 21 12 33 15 40 62 52 48
23 26 31 35 38 42 48 47 53 53 52 43 39 32 34 7 3 9 20 26 26 25 21 21 17 12 6 8 7 8 19 21 15 31 19 9 21 20 39 50 66 57 43 61 61
25 29 33 37 40 44 49 48 56 59 45 37 29 39 14 7 7 15 30 30 28 34 31 27 22 8 5 8 13 18 17 28 30 27 40 43 33 32 47 75 73 75 66 43 48
27 31 34 38 44 48 46 53 59 50 39 27 33 23 6 4 10 20 37 32 38 34 28 27 19 24 21 14 12 11 17 25 34 42 43 29 44 19 53 61 59 69 59 58 57
28 32 37 42 46 51 45 57 62 43 32 23 32 20 4 5 17 31 46 38 25 23 29 29 26 19 9 10 31 24 24 32 32 44 24 32 23 21 54 55 61 65 64 55 53
30 35 39 45 50 53 48 59 53 41 14 32 16 20 6 17 23 55 38 38 26 34 30 21 20 30 25 21 10 10 10 14 4 5 14 15 32 19 34 40 45 52 53 52 50
31 36 41 48 55 55 51 58 36 21 23 14 13 9 4 19 53 44 33 36 43 21 25 22 15 11 7 5 8 9 16 23 29 14 15 19 30 14 19 23 40 61 59 54 47
32 37 43 51 56 55 58 56 28 6 14 4 12 8 9 33 60 30 30 41 32 28 18 6 4 3 3 3 10 19 30 30 35 11 18 27 35 24 52 41 46 60 62 58 52
32 37 43 51 55 49 65 37 23 4 11 8 9 6 20 41 46 36 41 45 10 6 6 7 4 11 20 16 27 29 34 46 45 34 32 37 42 39 41 45 39 54 56 53 51
31 38 43 50 52 42 56 33 20 14 14 7 12 18 28 33 22 40 49 23 12 10 8 7 11 14 11 15 27 27 36 44 42 24 22 34 43 38 34 31 47 52 56 55 45
31 37 42 48 41 47 48 43 26 9 6 9 12 14 22 38 8 41 52 25 5 9 15 8 16 19 20 23 21 27 25 37 38 34 20 35 31 29 34 44 58 61 66 55 52
31 36 42 47 23 45 37 42 20 6 8 11 12 10 42 32 5 20 53 14 9 9 13 12 7 23 25 11 15 21 8 20 25 22 11 10 14 24 12 22 20 39 52 56 58
29 35 42 43 32 40 42 35 10 3 10 20 11 14 49 14 24 11 39 14 7 15 6 12 22 25 8 20 28 18 28 33 37 29 25 17 10 11 12 18 30 28 34 31 46
28 34 38 39 32 43 40 25 4 12 9 14 11 18 18 11 15 23 22 27 5 9 7 24 12 3 6 33 26 29 23 40 17 11 8 8 16 6 10 25 34 32 48 45 35
27 33 37 33 34 42 37 11 10 14 12 21 11 15 15 12 12 14 11 16 12 15 31 16 10 8 7 21 16 34 29 8 9 3 9 10 10 10 33 44 38 43 53 52 40
27 32 35 25 37 36 28 10 18 7 11 8 13 21 9 17 8 21 13 13 13 7 10 11 16 14 15 4 19 28 16 8 11 7 14 15 6 7 45 61 64 62 70 46 31
26 31 27 23 36 28 9 12 13 12 5 14 20 8 11 10 5 17 12 8 8 13 13 10 11 5 16 10 18 18 15 32 11 20 8 5 15 3 61 69 72 76 6 19 18
26 28 8 27 28 18 10 4 4 5 5 9 2 4 6 12 17 19 12 7 15 18 20 6 13 7 12 13 9 19 23 9 6 8 9 11 12 20 57 66 68 36 25 35 20
25 13 9 29 19 8 7 11 8 6 2 5 6 8 7 8 5 8 9 10 12 14 20 6 4 15 9 12 27 20 17 8 10 6 6 9 5 23 40 52 53 36 52 60 54
12 6 15 21 7 7 4 10 4 3 2 2 6 6 7 6 6 6 7 5 26 26 16 6 6 9 10 7 16 19 27 9 5 9 7 6 5 38 42 46 52 50 56 67 65
11 7 10 15 6 5 7 4 5 1 2 1 5 6 2 3 6 6 7 10 20 14 10 14 7 11 18 3 15 15 44 36 4 7 25 8 11 32 45 46 76 59 58 59 70
6 5 5 12 14 9 2 4 8 2 6 6 6 4 6 9 4 9 8 8 41 10 28 5 5 4 4 12 7 35 44 42 25 6 11 14 23 46 50 50 57 67 56 60 75
1 0 0 3 6 6 3 5 4 8 7 5 3 4 6 4 8 5 7 13 11 22 15 7 3 7 11 6 1 26 31 40 36 24 12 16 22 34 36 37 46 50 50 72 76
3 6 5 8 4 2 4 4 2 5 7 5 7 6 9 9 12 8 7 5 5 18 13 9 6 9 8 7 8 19 43 37 34 28 13 20 19 33 47 50 57 60 62 73 74
12 10 2 2 4 5 6 7 6 3 10 14 10 6 4 14 18 28 30 30 23 12 14 10 9 10 11 13 9 9 38 21 21 29 12 18 16 31 26 38 56 61 70 68 69
Wind_Direction_850mb
22 14 11 8 0 352 348 345 345 338 336 332 332 333 335 335 338 102 17 3 343 330 329 329 324 328 316 278 217 187 97 217 237 221 265 342 4 324 316 299 305 298 304 298 324
16 10 4 360 354 348 347 344 340 335 334 332 330 334 338 336 345 56 4 348 337 329 332 335 333 338 311 269 232 161 184 225 211 202 278 302 300 312 311 308 299 298 274 292 314
9 4 357 352 352 348 346 339 337 336 333 328 331 335 338 336 104 10 353 348 339 330 323 322 319 325 280 282 234 226 222 248 272 283 293 253 285 300 284 282 258 303 307 304 309
356 354 352 350 351 349 342 337 337 335 331 329 331 338 336 359 118 352 353 341 332 334 315 307 312 307 242 237 241 279 247 258 288 295 297 286 297 277 273 270 280 283 272 292 290
347 349 349 351 348 346 342 336 335 332 329 330 331 336 354 92 56 1 346 330 317 318 312 298 304 272 238 253 285 247 260 264 270 289 287 285 261 261 271 277 280 278 282 271 270
342 346 348 349 346 344 341 336 336 333 331 330 338 348 5 101 353 344 343 328 316 310 301 286 274 288 270 232 206 242 273 278 288 281 273 267 268 244 257 270 269 275 264 266 267
341 344 348 347 344 342 344 338 334 334 335 345 340 349 143 93 348 336 336 333 328 312 303 302 287 257 252 274 277 276 282 284 266 263 257 249 264 235 259 271 267 267 274 280 272
340 344 347 343 342 343 345 340 332 335 343 345 350 340 119 360 350 340 332 330 329 313 303 305 282 261 241 261 290 281 255 283 136 181 246 179 272 270 261 256 265 277 283 285 279
340 343 344 342 342 343 344 344 335 343 340 354 1 356 76 350 340 349 344 333 324 333 317 297 290 238 231 257 298 195 267 264 294 239 252 193 266 232 252 272 286 285 281 280 281
338 342 344 342 341 341 345 347 338 358 1 10 1 359 1 331 335 352 354 339 319 325 319 308 259 250 296 132 276 287 287 284 283 282 270 271 256 263 276 271 257 268 274 275 274
337 341 345 342 342 342 346 356 354 312 14 14 354 278 300 334 338 0 358 338 324 302 321 307 295 253 274 244 257 273 281 284 280 283 279 267 262 258 261 257 249 253 260 262 267
334 342 344 343 341 345 346 26 18 321 316 326 332 331 331 326 319 355 355 354 339 318 313 330 256 270 287 283 285 283 282 280 282 284 276 271 268 267 256 250 242 243 254 256 256
336 340 344 344 341 344 357 10 4 327 287 314 329 328 344 328 309 343 354 335 293 318 319 265 274 311 333 314 291 282 271 282 279 307 262 271 277 261 254 245 246 244 246 247 249
334 340 343 348 345 346 353 353 354 41 58 314 350 360 349 338 308 352 354 339 341 311 317 271 286 321 316 307 350 301 312 291 288 306 296 76 298 300 260 245 237 248 249 239 240
330 338 342 349 339 345 343 344 354 352 31 318 334 350 354 57 302 330 354 352 329 311 49 274 310 331 313 327 332 267 292 284 278 270 289 271 236 279 15 10 357 352 323 277 253
327 334 341 339 339 341 344 344 359 39 305 341 355 349 5 334 334 325 356 5 329 324 238 292 298 5 277 317 301 275 294 294 269 243 250 259 198 324 24 345 329 324 322 318 290
324 332 337 333 337 339 342 349 31 93 359 315 331 351 346 313 310 18 353 19 31 358 348 330 334 314 322 329 319 333 335 314 349 8 228 351 190 57 5 353 333 318 308 300 299
323 329 331 325 337 339 340 48 56 239 248 339 331 320 358 344 341 341 8 360 46 6 320 6 329 19 319 262 309 321 332 319 310 313 313 274 304 123 3 346 329 313 295 272 277
319 328 327 327 335 340 353 47 199 205 267 329 322 17 321 346 313 358 12 323 43 360 2 327 281 269 295 311 31 317 337 304 254 259 238 245 358 299 348 340 341 329 171 207 240
322 330 321 333 340 343 66 222 191 234 2 53 325 90 307 322 353 4 351 325 350 3 344 287 295 316 311 10 23 346 348 348 339 316 325 42 61 346 344 337 328 357 48 54 58
328 338 337 340 343 14 107 222 261 278 107 123 248 299 274 303 314 316 298 307 24 316 322 295 185 297 11 9 345 6 358 316 290 272 336 334 88 360 347 332 325 32 56 65 68
335 4 334 348 8 50 113 188 261 322 95 288 229 226 208 313 316 301 304 276 348 329 334 333 273 289 256 270 14 29 2 337 264 28 320 306 75 8 351 338 349 21 44 63 67
318 293 340 3 87 325 316 283 267 80 256 248 276 177 95 265 348 243 288 272 349 334 336 352 331 329 349 334 10 21 11 6 358 354 14 21 329 348 350 355 4 11 33 57 65
322 5 26 65 83 121 106 319 321 284 259 238 267 48 26 1 290 291 306 314 333 340 358 1 295 309 294 263 325 10 17 21 24 26 319 33 337 3 354 357 355 4 26 51 60
29 198 138 316 11 93 104 153 320 5 234 223 294 168 153 332 314 286 286 303 327 4 359 46 325 335 280 235 289 23 20 20 28 8 37 334 26 7 0 349 351 7 30 49 53
214 179 127 99 101 121 285 238 271 303 222 273 173 191 191 190 188 270 349 346 327 332 343 4 317 6 295 309 278 5 22 23 23 12 8 355 37 2 1 9 14 22 32 42 46
205 210 222 83 92 79 219 179 214 158 239 245 256 140 187 234 240 268 268 265 277 307 327 344 327 7 310 334 345 356 10 15 32 30 341 21 330 335 6 17 23 22 33 38 44